W4AK Weather Reports


Display with metric or nautical units.
time (UTC)temp
F
wind
direction
speed
MPH
gust
MPH
rain 1hr
in
rain 24hr
in
rain mn
in
humidity
%
barometer
mb
20260906085747 70 85 1.0 3.0 0.00 0.00 0.00 98 1055.6
20260906085246 71 355 1.0 3.0 0.00 0.00 0.00 98 1055.6
20260906084745 71 160 0.0 3.0 0.00 0.00 0.00 98 1055.6
20260906084245 71 350 0.0 3.0 0.00 0.00 0.00 98 1055.6
20260906083745 71 0 0.0 4.0 0.00 0.00 0.00 98 1055.6
20260906083245 71 133 1.0 6.0 0.00 0.00 0.00 98 1055.6
20260906082744 71 348 3.0 6.0 0.00 0.00 0.00 98 1055.6
20260906082243 71 356 2.0 5.0 0.00 0.00 0.00 98 1056.0
20260906081743 71 11 1.0 2.0 0.00 0.00 0.00 98 1055.6
20260906081243 71 340 2.0 2.0 0.00 0.00 0.00 98 1055.3
20260906080742 72 351 1.0 2.0 0.00 0.00 0.00 97 1055.3
20260906080242 71 61 1.0 2.0 0.00 0.00 0.00 97 1055.3
20260906075741 71 49 1.0 1.0 0.00 0.00 0.00 98 1055.3
20260906075241 71 19 0.0 1.0 0.00 0.00 0.00 98 1055.3
20260906074740 71 145 0.0 2.0 0.00 0.00 0.00 97 1055.3
20260906074500 71 140 1.0 2.0 0.00 0.00 0.00 97 1055.3
20260906073739 71 63 0.0 2.0 0.00 0.00 0.00 97 1055.0
20260906073240 71 135 0.0 2.0 0.00 0.00 0.00 98 1055.3
20260906072739 71 153 0.0 3.0 0.00 0.00 0.00 98 1055.0
20260906072238 70 121 1.0 3.0 0.00 0.00 0.00 98 1055.0
20260906071738 70 152 2.0 2.0 0.00 0.00 0.00 98 1055.0
20260906071720 71 131 1.0 1.0 0.00 0.00 0.00 97 1055.0
20260906070737 71 62 0.0 1.0 0.00 0.00 0.00 97 1055.0
20260906070237 71 47 0.0 2.0 0.00 0.00 0.00 97 1055.0
20260906065737 71 62 0.0 2.0 0.00 0.00 0.00 97 1055.3
20260906065458 71 54 0.0 2.0 0.00 0.00 0.00 97 1055.3
20260906064956 71 37 1.0 2.0 0.00 0.00 0.00 97 1055.3
20260906064235 71 24 0.0 2.0 0.00 0.00 0.00 97 1055.6
20260906063735 71 8 2.0 2.0 0.00 0.00 0.00 98 1055.6
20260906063234 71 356 1.0 2.0 0.00 0.00 0.00 98 1055.6
20260906062734 71 354 1.0 2.0 0.00 0.00 0.00 98 1056.0
20260906062458 71 7 1.0 2.0 0.00 0.00 0.00 97 1056.0
20260906061733 71 0 1.0 2.0 0.00 0.00 0.00 97 1056.0
20260906061232 71 357 0.0 2.0 0.00 0.00 0.00 97 1055.6
20260906060733 71 343 0.0 1.0 0.00 0.00 0.00 97 1055.6
20260906060232 71 5 0.0 1.0 0.00 0.00 0.00 97 1055.6
20260906055731 71 39 1.0 1.0 0.00 0.00 0.00 97 1055.6
20260906055232 71 57 0.0 1.0 0.00 0.00 0.00 97 1055.6
20260906054731 71 89 0.0 1.0 0.00 0.00 0.00 97 1055.6
20260906054230 71 72 0.0 2.0 0.00 0.00 0.00 97 1055.6
20260906053730 71 34 0.0 2.0 0.00 0.00 0.00 97 1056.0
20260906053230 71 342 1.0 2.0 0.00 0.00 0.00 97 1055.6
20260906052729 71 351 1.0 2.0 0.00 0.00 0.00 97 1056.0
20260906052229 71 12 1.0 2.0 0.00 0.00 0.00 97 1055.6
20260906051728 71 21 0.0 2.0 0.00 0.00 0.00 97 1056.0
20260906051228 71 27 1.0 2.0 0.00 0.00 0.00 97 1056.0
20260906050727 71 30 0.0 2.0 0.00 0.00 0.00 97 1056.0
20260906050227 71 357 1.0 2.0 0.00 0.00 0.00 97 1055.6
20260906045726 71 350 1.0 2.0 0.00 0.00 0.00 97 1055.6
20260906045453 71 354 1.0 2.0 0.00 0.00 0.00 97 1056.0
20260906044726 71 4 1.0 2.0 0.00 0.00 0.00 97 1056.0
20260906044226 72 356 0.0 2.0 0.00 0.00 0.00 97 1056.0
20260906043725 72 16 1.0 2.0 0.00 0.00 0.00 97 1056.0
20260906043224 72 16 1.0 2.0 0.00 0.00 0.00 97 1056.0
20260906042725 72 50 0.0 2.0 0.00 0.00 0.00 97 1056.0
20260906042224 72 135 0.0 2.0 0.00 0.00 0.00 97 1056.0
20260906041947 71 344 1.0 2.0 0.00 0.00 0.00 97 1056.0
20260906041446 71 346 0.0 2.0 0.00 0.00 0.00 97 1056.4
20260906040722 71 339 2.0 2.0 0.00 0.00 0.00 97 1056.7
20260906040223 71 344 1.0 2.0 0.00 0.00 0.00 97 1056.4
20260906035722 72 28 1.0 2.0 0.00 0.00 0.00 96 1056.0
20260906035222 71 2 0.0 1.0 0.00 0.00 0.00 96 1056.4
20260906034721 71 89 0.0 1.0 0.00 0.00 0.00 96 1056.0
20260906034702 72 87 0.0 2.0 0.00 0.00 0.00 96 1056.4
20260906033720 72 22 0.0 2.0 0.00 0.00 0.00 96 1056.4
20260906033220 72 351 2.0 2.0 0.00 0.00 0.00 96 1056.4
20260906032719 72 351 1.0 2.0 0.00 0.00 0.00 96 1056.4
20260906032220 72 39 0.0 3.0 0.00 0.00 0.00 96 1056.4
20260906031718 72 337 0.0 3.0 0.00 0.00 0.00 96 1056.4
20260906031438 72 333 2.0 2.0 0.00 0.00 0.00 96 1056.4
20260906030717 72 4 2.0 3.0 0.00 0.00 0.00 96 1056.4
20260906030218 72 5 1.0 3.0 0.00 0.00 0.00 96 1056.0
20260906025944 72 356 2.0 2.0 0.00 0.00 0.00 96 1056.7
20260906025216 72 8 1.0 2.0 0.00 0.00 0.00 96 1056.4
20260906024933 72 35 0.0 2.0 0.00 0.00 0.00 96 1056.4
20260906024216 72 355 2.0 2.0 0.00 0.00 0.00 96 1056.4
20260906023715 72 355 2.0 2.0 0.00 0.00 0.00 96 1056.0
20260906023658 72 350 2.0 2.0 0.00 0.00 0.00 96 1056.4
20260906022714 72 3 1.0 2.0 0.00 0.00 0.00 97 1056.4
20260906022214 72 55 0.0 2.0 0.00 0.00 0.00 96 1056.4
20260906021714 72 10 0.0 2.0 0.00 0.00 0.00 96 1056.0
20260906021213 72 358 2.0 2.0 0.00 0.00 0.00 97 1056.0
20260906020713 72 4 2.0 2.0 0.00 0.00 0.00 96 1056.0
20260906020433 72 117 0.0 2.0 0.00 0.00 0.00 96 1055.6
20260906015712 72 339 0.0 2.0 0.00 0.00 0.00 96 1056.4
20260906015212 72 3 2.0 2.0 0.00 0.00 0.00 96 1056.0
20260906014711 72 137 2.0 2.0 0.00 0.00 0.00 96 1055.6
20260906014211 72 164 1.0 2.0 0.00 0.00 0.00 96 1056.0
20260906013710 72 14 1.0 2.0 0.00 0.00 0.00 96 1056.0
20260906013210 72 352 1.0 2.0 0.00 0.00 0.00 96 1056.0
20260906012709 72 337 1.0 2.0 0.00 0.00 0.00 96 1055.6
20260906012209 72 5 1.0 2.0 0.00 0.00 0.00 96 1055.6
20260906011709 72 11 1.0 2.0 0.00 0.00 0.00 96 1056.0
20260906011208 72 353 2.0 2.0 0.00 0.00 0.00 95 1055.6
20260906010708 72 322 2.0 3.0 0.00 0.00 0.00 95 1055.3
20260906010207 72 40 0.0 3.0 0.00 0.00 0.00 95 1055.0
20260906005707 72 350 2.0 3.0 0.00 0.00 0.00 95 1055.3
20260906005644 72 335 3.0 3.0 0.00 0.00 0.00 95 1055.3
20260906004706 72 350 0.0 4.0 0.00 0.00 0.00 95 1055.3
20260906004206 71 64 0.0 4.0 0.00 0.00 0.00 95 1055.3
20260906003705 71 342 2.0 3.0 0.00 0.00 0.00 94 1055.3
20260906003204 72 340 2.0 4.0 0.00 0.00 0.00 93 1055.3
20260906002705 73 330 2.0 8.0 0.00 0.00 0.00 90 1055.0
20260906002204 73 325 4.0 8.0 0.00 0.00 0.00 90 1055.6
20260906001703 72 0 3.0 7.0 0.00 0.00 0.00 92 1055.6
20260906001204 72 193 2.0 17.0 0.00 0.00 0.00 92 1055.3
20260906000703 73 162 4.0 17.0 0.00 0.00 0.00 82 1055.6
20260906000426 76 213 4.0 11.0 0.00 0.00 0.00 83 1056.7
20260905235702 81 324 5.0 5.0 0.00 0.00 0.00 79 1055.6
20260905235201 81 312 1.0 2.0 0.00 0.00 0.00 73 1055.3
20260905234701 81 180 0.0 4.0 0.00 0.00 0.00 75 1055.3
20260905234201 81 353 0.0 5.0 0.00 0.00 0.00 78 1055.3
20260905233700 83 128 2.0 5.0 0.00 0.00 0.00 76 1055.3
20260905233200 85 58 1.0 2.0 0.00 0.00 0.00 73 1055.3
20260905232700 87 25 0.0 3.0 0.00 0.00 0.00 71 1055.0
20260905232159 88 129 0.0 3.0 0.00 0.00 0.00 68 1055.3
20260905231659 88 31 1.0 3.0 0.00 0.00 0.00 66 1055.3
20260905231419 88 347 2.0 2.0 0.00 0.00 0.00 64 1055.0
20260905230922 88 0 0.0 2.0 0.00 0.00 0.00 64 1054.6
20260905230157 88 50 0.0 2.0 0.00 0.00 0.00 62 1054.6
20260905225657 88 12 0.0 2.0 0.00 0.00 0.00 61 1055.0
20260905225157 89 44 0.0 2.0 0.00 0.00 0.00 60 1055.0
20260905224916 88 5 1.0 3.0 0.00 0.00 0.00 61 1055.0
20260905224156 88 13 1.0 3.0 0.00 0.00 0.00 62 1055.0
20260905223655 88 104 0.0 3.0 0.00 0.00 0.00 63 1055.0
20260905223154 88 48 0.0 4.0 0.00 0.00 0.00 63 1055.0
20260905222655 88 119 0.0 4.0 0.00 0.00 0.00 63 1055.0
20260905222154 88 32 0.0 3.0 0.00 0.00 0.00 64 1055.0
20260905221653 88 109 2.0 4.0 0.00 0.00 0.00 64 1055.0
20260905221153 88 119 1.0 4.0 0.00 0.00 0.00 64 1055.0
20260905220653 88 125 2.0 3.0 0.00 0.00 0.00 64 1055.0
20260905220152 88 92 1.0 4.0 0.00 0.00 0.00 64 1055.0
20260905215652 88 136 2.0 4.0 0.00 0.00 0.00 63 1055.0
20260905215151 88 175 2.0 3.0 0.00 0.00 0.00 62 1055.3
20260905214651 89 117 0.0 3.0 0.00 0.00 0.00 62 1055.0
20260905214408 89 151 2.0 3.0 0.00 0.00 0.00 62 1055.3
20260905213650 89 124 2.0 3.0 0.00 0.00 0.00 61 1055.6
20260905213149 89 128 0.0 4.0 0.00 0.00 0.00 62 1055.3
20260905212910 89 144 2.0 4.0 0.00 0.00 0.00 61 1055.3
20260905212149 88 38 2.0 4.0 0.00 0.00 0.00 62 1055.3
20260905211649 89 168 2.0 4.0 0.00 0.00 0.00 62 1055.3
20260905211148 89 119 2.0 5.0 0.00 0.00 0.00 61 1055.3
20260905210647 88 92 1.0 5.0 0.00 0.00 0.00 61 1055.3
20260905210148 88 173 2.0 5.0 0.00 0.00 0.00 63 1055.6
20260905205913 87 150 2.0 2.0 0.00 0.00 0.00 67 1055.6
20260905205147 86 173 1.0 4.0 0.00 0.00 0.00 67 1055.6
20260905204646 86 39 2.0 4.0 0.00 0.00 0.00 67 1055.6
20260905204146 87 154 3.0 5.0 0.00 0.00 0.00 67 1055.6
20260905203906 88 101 2.0 6.0 0.00 0.00 0.00 65 1056.0
20260905203145 90 148 5.0 5.0 0.00 0.00 0.00 60 1055.6
20260905202644 90 149 3.0 5.0 0.00 0.00 0.00 59 1055.6
20260905202143 90 141 4.0 5.0 0.00 0.00 0.00 61 1055.6
20260905201644 90 185 5.0 6.0 0.00 0.00 0.00 62 1055.6
20260905201143 89 180 4.0 7.0 0.00 0.00 0.00 61 1056.0
20260905200642 89 178 2.0 7.0 0.00 0.00 0.00 62 1056.0
20260905200143 90 153 4.0 6.0 0.00 0.00 0.00 61 1055.6
20260905195642 90 181 3.0 6.0 0.00 0.00 0.00 61 1055.6
20260905195406 90 84 3.0 6.0 0.00 0.00 0.00 59 1056.0
20260905194641 90 158 3.0 5.0 0.00 0.00 0.00 59 1056.0
20260905194359 88 146 0.0 7.0 0.00 0.00 0.00 63 1056.0
20260905193859 88 160 3.0 7.0 0.00 0.00 0.00 62 1056.4
20260905193140 88 170 5.0 7.0 0.00 0.00 0.00 63 1056.0
20260905192640 88 153 3.0 8.0 0.00 0.00 0.00 63 1056.7
20260905192140 88 120 3.0 9.0 0.00 0.00 0.00 65 1056.7
20260905191639 88 105 5.0 9.0 0.00 0.00 0.00 65 1056.7
20260905191138 88 148 4.0 12.0 0.00 0.00 0.00 65 1056.7
20260905190638 89 125 4.0 12.0 0.00 0.00 0.00 62 1057.1
20260905190138 90 138 2.0 6.0 0.00 0.00 0.00 58 1057.1
20260905185857 91 177 0.0 6.0 0.00 0.00 0.00 55 1056.7
20260905185136 91 86 1.0 6.0 0.00 0.00 0.00 57 1056.7
20260905184636 91 160 2.0 7.0 0.00 0.00 0.00 58 1056.7
20260905184358 91 119 3.0 7.0 0.00 0.00 0.00 58 1057.1
20260905183636 90 134 3.0 6.0 0.00 0.00 0.00 60 1056.7
20260905183135 90 205 2.0 6.0 0.00 0.00 0.00 60 1057.1
20260905182634 89 135 0.0 6.0 0.00 0.00 0.00 62 1057.1
20260905182134 89 202 3.0 6.0 0.00 0.00 0.00 62 1057.1
20260905181635 88 178 4.0 6.0 0.00 0.00 0.00 64 1057.1
20260905181133 87 118 2.0 6.0 0.00 0.00 0.00 64 1057.1
20260905180634 87 15 4.0 6.0 0.00 0.00 0.00 66 1057.4
20260905180133 87 83 3.0 6.0 0.00 0.00 0.00 66 1057.4
20260905175858 89 66 2.0 5.0 0.00 0.00 0.00 64 1057.8
20260905175132 89 141 3.0 3.0 0.00 0.00 0.00 64 1057.8
20260905174632 90 39 1.0 2.0 0.00 0.00 0.00 63 1057.8
20260905174131 90 253 1.0 3.0 0.00 0.00 0.00 64 1058.1
20260905173631 90 158 1.0 3.0 0.00 0.00 0.00 63 1058.1
20260905173130 90 124 1.0 2.0 0.00 0.00 0.00 64 1057.8
20260905172851 91 41 1.0 2.0 0.00 0.00 0.00 63 1057.8
20260905172129 91 349 2.0 3.0 0.00 0.00 0.00 61 1057.8
20260905171629 92 118 0.0 3.0 0.00 0.00 0.00 60 1057.8
20260905171128 92 154 1.0 4.0 0.00 0.00 0.00 59 1057.8
20260905170628 93 37 0.0 4.0 0.00 0.00 0.00 57 1057.8
20260905170128 95 109 2.0 4.0 0.00 0.00 0.00 54 1058.1
20260905170106 96 31 0.0 4.0 0.00 0.00 0.00 53 1058.1
20260905165127 97 358 2.0 4.0 0.00 0.00 0.00 51 1058.1
20260905164626 97 12 2.0 4.0 0.00 0.00 0.00 51 1058.1
20260905164126 97 124 3.0 3.0 0.00 0.00 0.00 52 1058.1
20260905163626 96 47 3.0 3.0 0.00 0.00 0.00 53 1058.1
20260905163125 95 17 2.0 4.0 0.00 0.00 0.00 55 1057.8
20260905162625 95 63 2.0 4.0 0.00 0.00 0.00 53 1058.1
20260905162124 95 352 2.0 4.0 0.00 0.00 0.00 54 1058.1
20260905162115 93 84 2.0 4.0 0.00 0.00 0.00 59 1058.1
20260905161603 93 136 2.0 5.0 0.00 0.00 0.00 58 1058.1
20260905160623 94 138 4.0 5.0 0.00 0.00 0.00 59 1058.1
20260905160123 91 131 2.0 4.0 0.00 0.00 0.00 62 1058.1
20260905155622 92 121 2.0 3.0 0.00 0.00 0.00 60 1058.1
20260905155122 94 134 2.0 4.0 0.00 0.00 0.00 58 1058.1
20260905154621 93 117 2.0 4.0 0.00 0.00 0.00 59 1058.1
20260905154121 93 112 1.0 3.0 0.00 0.00 0.00 60 1058.1
20260905153621 92 179 1.0 4.0 0.00 0.00 0.00 60 1058.1
20260905153120 90 351 2.0 5.0 0.00 0.00 0.00 65 1058.1
20260905152620 89 83 0.0 5.0 0.00 0.00 0.00 65 1058.1
20260905152119 90 148 0.0 4.0 0.00 0.00 0.00 64 1058.4
20260905151619 90 81 2.0 4.0 0.00 0.00 0.00 63 1058.1
20260905151119 89 359 2.0 2.0 0.00 0.00 0.00 64 1058.1
20260905150618 87 103 0.0 4.0 0.00 0.00 0.00 71 1058.1
20260905150118 88 119 0.0 4.0 0.00 0.00 0.00 68 1058.1
20260905145617 89 154 0.0 2.0 0.00 0.00 0.00 66 1058.1
20260905145116 88 119 0.0 2.0 0.00 0.00 0.00 68 1058.4
20260905144616 87 142 0.0 2.0 0.00 0.00 0.00 68 1058.4
20260905144121 87 3 1.0 2.0 0.00 0.00 0.00 70 1058.4
20260905143820 85 80 0.0 2.0 0.00 0.00 0.00 73 1058.4
20260905143705 86 50 0.0 2.0 0.00 0.00 0.00 70 1058.1
20260905142615 85 50 0.0 2.0 0.00 0.00 0.00 74 1058.4
20260905142115 84 130 0.0 2.0 0.00 0.00 0.00 73 1058.4
20260905141614 84 158 0.0 2.0 0.00 0.00 0.00 73 1058.4
20260905141113 83 108 0.0 2.0 0.00 0.00 0.00 74 1058.4
20260905140614 83 78 1.0 2.0 0.00 0.00 0.00 74 1058.4
20260905140113 83 155 2.0 3.0 0.00 0.00 0.00 73 1058.4
20260905135612 83 336 0.0 3.0 0.00 0.00 0.00 74 1058.4
20260905135112 82 120 0.0 4.0 0.00 0.00 0.00 75 1058.4
20260905134612 83 142 0.0 4.0 0.00 0.00 0.00 75 1058.4
20260905134111 83 146 1.0 3.0 0.00 0.00 0.00 77 1058.4
20260905133611 82 157 0.0 3.0 0.00 0.00 0.00 78 1058.4
20260905133111 82 52 0.0 3.0 0.00 0.00 0.00 79 1058.4
20260905133106 81 85 3.0 3.0 0.00 0.00 0.00 79 1058.4
20260905132330 80 147 0.0 2.0 0.00 0.00 0.00 82 1058.4
20260905131609 80 141 0.0 2.0 0.00 0.00 0.00 82 1058.8
20260905131109 80 93 0.0 2.0 0.00 0.00 0.00 82 1058.8
20260905130609 80 135 0.0 2.0 0.00 0.00 0.00 81 1058.8
20260905130108 81 98 1.0 2.0 0.00 0.00 0.00 79 1058.8
20260905125607 80 96 2.0 2.0 0.00 0.00 0.00 82 1058.8
20260905125337 79 89 0.0 3.0 0.00 0.00 0.00 83 1058.8
20260905124824 78 170 2.0 4.0 0.00 0.00 0.00 85 1058.8
20260905124325 78 150 2.0 4.0 0.00 0.00 0.00 87 1059.1
20260905123606 77 112 2.0 3.0 0.00 0.00 0.00 87 1058.8
20260905123105 77 140 0.0 3.0 0.00 0.00 0.00 87 1059.1
20260905122605 77 45 0.0 3.0 0.00 0.00 0.00 86 1058.8
20260905122104 78 14 1.0 3.0 0.00 0.00 0.00 85 1058.8
20260905121605 77 80 0.0 2.0 0.00 0.00 0.00 86 1058.4
20260905121104 76 96 0.0 3.0 0.00 0.00 0.00 89 1058.4
20260905120603 75 325 1.0 3.0 0.00 0.00 0.00 90 1058.4
20260905120103 74 329 1.0 3.0 0.00 0.00 0.00 91 1058.4
20260905115603 74 352 0.0 2.0 0.00 0.00 0.00 93 1058.4
20260905115102 73 306 0.0 2.0 0.00 0.00 0.00 93 1058.1
20260905115046 73 124 0.0 2.0 0.00 0.00 0.00 93 1058.1
20260905114101 73 89 1.0 2.0 0.00 0.00 0.00 93 1058.1
20260905113601 73 315 1.0 2.0 0.00 0.00 0.00 94 1057.8
20260905113321 73 4 1.0 3.0 0.00 0.00 0.00 94 1058.1
20260905112601 73 0 2.0 4.0 0.00 0.00 0.00 94 1057.8
20260905112100 72 347 2.0 4.0 0.00 0.00 0.00 94 1057.8
20260905111559 72 338 2.0 3.0 0.00 0.00 0.00 94 1057.8
20260905111058 72 315 0.0 2.0 0.00 0.00 0.00 94 1057.8
20260905110559 72 322 1.0 2.0 0.00 0.00 0.00 94 1057.8
20260905110058 72 341 1.0 2.0 0.00 0.00 0.00 94 1057.8
20260905105819 72 183 2.0 2.0 0.00 0.00 0.00 94 1057.8
20260905105057 72 311 0.0 2.0 0.00 0.00 0.00 94 1057.8
20260905104557 73 175 1.0 4.0 0.00 0.00 0.00 93 1057.4
20260905104056 73 23 2.0 4.0 0.00 0.00 0.00 93 1057.4
20260905103556 73 341 1.0 3.0 0.00 0.00 0.00 93 1057.4
20260905103055 73 15 0.0 3.0 0.00 0.00 0.00 93 1057.4
20260905102554 73 56 1.0 3.0 0.00 0.00 0.00 93 1057.4
20260905102055 73 269 1.0 3.0 0.00 0.00 0.00 93 1057.4
20260905101554 73 324 2.0 3.0 0.00 0.00 0.00 93 1057.4
20260905101053 73 356 1.0 3.0 0.00 0.00 0.00 93 1057.4
20260905100554 73 320 1.0 3.0 0.00 0.00 0.00 92 1057.4
20260905100053 73 304 1.0 4.0 0.00 0.00 0.00 92 1057.1
20260905095552 74 150 1.0 4.0 0.00 0.00 0.00 92 1057.1
20260905095052 73 337 3.0 4.0 0.00 0.00 0.00 92 1057.1
20260905094552 73 339 2.0 4.0 0.00 0.00 0.00 92 1057.1
20260905094052 74 174 1.0 5.0 0.00 0.00 0.00 92 1057.1
20260905093551 74 340 2.0 5.0 0.00 0.00 0.00 92 1056.7
20260905093050 74 353 2.0 3.0 0.00 0.00 0.00 91 1057.1
20260905092550 74 334 0.0 5.0 0.00 0.00 0.00 90 1057.1
20260905092319 74 342 2.0 5.0 0.00 0.00 0.00 92 1057.1
20260905091550 74 355 2.0 4.0 0.00 0.00 0.00 92 1057.1
20260905091050 74 303 3.0 4.0 0.00 0.00 0.00 91 1056.7
20260905090548 74 312 3.0 4.0 0.00 0.00 0.00 91 1056.7